Location: Unspecified
(0.0000°N, 0.0000°E)
Time: 23:22:36
(UTC+00:00)

A-11 Canister half - All Passes

Search period start: 19 February 2017 00:00
Search period end: 01 March 2017 00:00
Orbit: 1528 x 1681 km, 47.3° (Epoch: 18 February)

Date Brightness Start Highest point End Pass type
(mag) Time Alt. Az. Time Alt. Az. Time Alt. Az.
19 Feb - 03:03:13 10° N 03:10:15 23° NE 03:17:25 10° E visible
19 Feb - 05:05:41 10° NW 05:15:11 73° SW 05:25:03 10° SSE visible
19 Feb - 07:16:37 10° WSW 07:20:47 13° SW 07:25:01 10° SSW daylight
19 Feb - 15:53:09 10° SSW 16:02:47 53° SE 16:12:03 10° NE daylight
19 Feb - 17:59:10 10° WSW 18:07:39 33° NW 18:15:56 10° NNE daylight
20 Feb - 02:41:57 10° N 02:48:38 21° NE 02:55:25 10° E visible
20 Feb - 04:44:05 10° NW 04:53:36 77° SW 05:03:29 10° SE visible
20 Feb - 06:54:19 10° WSW 06:59:07 14° SW 07:03:59 10° SSW daylight
20 Feb - 15:31:38 10° SSW 15:41:11 49° SE 15:50:22 10° ENE daylight
20 Feb - 17:37:20 10° WSW 17:46:03 36° NW 17:54:32 10° NNE daylight
21 Feb - 02:20:43 10° N 02:27:01 20° NE 02:33:23 10° E visible
21 Feb - 04:22:30 10° NW 04:32:01 82° SW 04:41:53 10° SE visible
21 Feb - 06:32:07 10° W 06:37:26 16° SW 06:42:52 10° S daylight
21 Feb - 15:10:07 10° SSW 15:19:34 46° SE 15:28:41 10° ENE daylight
21 Feb - 17:15:32 10° WSW 17:24:27 39° NW 17:33:08 10° NNE daylight
22 Feb - 01:59:32 10° N 02:05:24 18° NE 02:11:19 10° E visible
22 Feb - 04:00:56 10° NW 04:10:26 88° SW 04:20:17 10° SE visible
22 Feb - 06:10:00 10° W 06:15:46 17° SW 06:21:42 10° S daylight
22 Feb - 14:48:37 10° SSW 14:57:58 43° SE 15:06:58 10° ENE daylight
22 Feb - 16:53:44 10° WSW 17:02:51 42° NW 17:11:43 10° NNE daylight
23 Feb - 01:38:24 10° N 01:43:46 16° NE 01:49:10 10° E visible
23 Feb - 03:39:22 10° NW 03:48:52 87° NE 03:58:40 10° SE visible
23 Feb - 05:47:56 10° W 05:54:07 19° SW 06:00:27 10° S visible
23 Feb - 14:27:09 10° SSW 14:36:21 40° SE 14:45:14 10° ENE daylight
23 Feb - 16:31:59 10° WSW 16:41:15 45° NW 16:50:16 10° NNE daylight
24 Feb - 01:17:20 10° NNE 01:22:07 15° NE 01:26:58 10° ENE visible
24 Feb - 03:17:50 10° NW 03:27:16 82° NE 03:37:03 10° SE visible
24 Feb - 05:25:57 10° W 05:32:28 20° SW 05:39:11 10° S visible
24 Feb - 14:05:40 10° SSW 14:14:43 37° SE 14:23:30 10° ENE daylight
24 Feb - 16:10:13 10° WSW 16:19:40 48° NW 16:28:49 10° NNE daylight
25 Feb - 00:56:21 10° NNE 01:00:29 13° NE 01:04:37 10° ENE night (unlit)
25 Feb - 02:56:17 10° NW 03:05:42 77° NE 03:15:26 10° SE visible
25 Feb - 05:03:59 10° W 05:10:50 22° SW 05:17:52 10° S visible
25 Feb - 13:44:13 10° SSW 13:53:06 35° SE 14:01:44 10° ENE daylight
25 Feb - 15:48:30 10° SW 15:58:04 52° NW 16:07:22 10° NNE daylight
26 Feb - 00:35:33 10° NNE 00:38:50 12° NE 00:42:08 10° ENE night (unlit)
26 Feb - 02:34:46 10° NNW 02:44:07 72° NE 02:53:47 10° SE visible
26 Feb - 04:42:04 10° W 04:49:12 24° SW 04:56:32 10° S visible
26 Feb - 13:22:47 10° SSW 13:31:29 33° SE 13:39:56 10° ENE daylight
26 Feb - 15:26:46 10° SW 15:36:28 56° NW 15:45:53 10° NNE daylight
27 Feb - 00:15:07 10° NNE 00:17:11 11° NE 00:19:16 10° ENE night (unlit)
27 Feb - 02:13:15 10° NNW 02:22:33 68° NE 02:32:08 10° SE visible
27 Feb - 04:20:11 10° W 04:27:34 25° SW 04:35:11 10° S visible
27 Feb - 13:01:21 10° S 13:09:51 30° SE 13:18:06 10° ENE daylight
27 Feb - 15:05:04 10° SW 15:14:52 60° NW 15:24:24 10° NNE daylight
28 Feb - 01:51:45 10° NNW 02:00:59 63° NE 02:10:28 10° SE visible
28 Feb - 03:58:20 10° WNW 04:05:56 27° SW 04:13:48 10° S visible
28 Feb - 12:39:56 10° S 12:48:12 28° SE 12:56:16 10° ENE daylight
28 Feb - 14:43:22 10° SW 14:53:17 64° NW 15:02:54 10° NNE daylight
28 Feb - 16:57:18 10° NW 16:58:48 10° NW 17:00:18 10° NW daylight
